Weather History for ESOE - December, 2013

Change the Weather History Date:

Tuesday, December 31, 2013

  Actual Average Record
Temperature  
Mean Temperature 40 °F -  
Max Temperature 44 °F - - ()
Min Temperature 35 °F - - ()
Degree Days  
Heating Degree Days 26    
Moisture  
Dew Point 36 °F    
Average Humidity 85    
Maximum Humidity 93    
Minimum Humidity 71    
Precipitation  
Precipitation 0.00 in - - ()
Sea Level Pressure  
Sea Level Pressure 29.89 in    
Wind  
Wind Speed 12 mph ()    
Max Wind Speed 22 mph    
Max Gust Speed 28 mph    
Visibility 6.2 miles    
Events Rain    
T = Trace of Precipitation, MM = Missing Value Source: Averaged Metar Reports

Daily Weather History Graph

Daily Weather History Graph

Search for Another Location

Airport or City:

Trip Planner

Search our weather history database for the weather conditions in past years. The results will help you decide how hot, cold, wet, or windy it might be!

Date:

Astronomy

Dec. 31, 2013 Rise Set
Actual Time 8:55 AM CET 3:10 PM CET
Civil Twilight 8:01 AM CET 4:04 PM CET
Nautical Twilight 7:06 AM CET 4:59 PM CET
Astronomical Twilight 6:16 AM CET 5:49 PM CET
Moon 7:17 AM CET (12/31) 2:40 PM CET (12/31)
Length of Visible Light 8h 03m
Length of Day
6h 14m
Waning Crescent, 2% of the Moon is Illuminated
Dec 31
Waning Crescent
Jan 1
New
Jan 8
First Quarter
Jan 16
Full
Jan 24
Last Quarter

Hourly Weather History & Observations

Time (CET) Temp. Windchill Dew Point Humidity Pressure Visibility Wind Dir Wind Speed Gust Speed Precip Events Conditions
12:20 AM 37.4 °F 29.8 °F 35.6 °F 93% 29.95 in 6.2 mi SSW 11.5 mph - N/A   Mostly Cloudy
12:50 AM 37.4 °F 30.3 °F 33.8 °F 87% 29.95 in 6.2 mi SSW 10.4 mph - N/A   Partly Cloudy
1:20 AM 35.6 °F 28.0 °F 33.8 °F 93% 29.92 in 6.2 mi SSW 10.4 mph - N/A   Unknown
1:50 AM 37.4 °F 30.3 °F 33.8 °F 87% 29.92 in 6.2 mi South 10.4 mph - N/A   Partly Cloudy
2:20 AM 37.4 °F 30.3 °F 33.8 °F 87% 29.92 in 6.2 mi South 10.4 mph - N/A   Unknown
2:50 AM 37.4 °F 30.8 °F 33.8 °F 87% 29.92 in 6.2 mi South 9.2 mph - N/A   Unknown
3:20 AM 37.4 °F 30.8 °F 33.8 °F 87% 29.89 in 6.2 mi SSE 9.2 mph - N/A   Unknown
3:50 AM 37.4 °F 31.4 °F 33.8 °F 87% 29.89 in 6.2 mi South 8.1 mph - N/A   Unknown
4:20 AM 37.4 °F 30.8 °F 33.8 °F 87% 29.89 in 6.2 mi South 9.2 mph - N/A   Unknown
4:50 AM 37.4 °F 30.3 °F 33.8 °F 87% 29.89 in 6.2 mi South 10.4 mph - N/A   Unknown
5:20 AM 37.4 °F 29.8 °F 33.8 °F 87% 29.89 in 5.0 mi SSW 11.5 mph - N/A Rain Light Rain
5:50 AM 37.4 °F 29.3 °F 35.6 °F 93% 29.89 in 6.2 mi SSW 12.7 mph - N/A   Overcast
6:20 AM 37.4 °F 29.8 °F 35.6 °F 93% 29.86 in 6.2 mi South 11.5 mph - N/A   Overcast
6:50 AM 39.2 °F 31.6 °F 35.6 °F 87% 29.86 in 6.2 mi South 12.7 mph - N/A   Overcast
7:20 AM 39.2 °F 31.6 °F 35.6 °F 87% 29.86 in 6.2 mi SSW 12.7 mph - N/A   Overcast
7:50 AM 39.2 °F 31.6 °F 35.6 °F 87% 29.86 in 6.2 mi South 12.7 mph - N/A   Mostly Cloudy
8:20 AM 39.2 °F 32.0 °F 35.6 °F 87% 29.86 in 6.2 mi South 11.5 mph - N/A   Overcast
8:50 AM 39.2 °F 30.8 °F 35.6 °F 87% 29.86 in 6.2 mi SSW 15.0 mph - N/A   Overcast
9:20 AM 41.0 °F 33.5 °F 35.6 °F 81% 29.86 in 6.2 mi South 13.8 mph - N/A   Overcast
9:50 AM 41.0 °F 33.1 °F 37.4 °F 87% 29.86 in 6.2 mi SSW 15.0 mph - N/A   Overcast
10:20 AM 41.0 °F 32.8 °F 37.4 °F 87% 29.86 in 6.2 mi South 16.1 mph - N/A   Mostly Cloudy
10:50 AM 41.0 °F 31.4 °F 37.4 °F 87% 29.86 in 6.2 mi SSW 21.9 mph - N/A   Mostly Cloudy
11:20 AM 42.8 °F 34.0 °F 37.4 °F 81% 29.86 in 6.2 mi SSW 20.7 mph - N/A   Overcast
11:50 AM 42.8 °F 34.0 °F 37.4 °F 81% 29.86 in 6.2 mi SSW 20.7 mph - N/A   Overcast
12:20 PM 42.8 °F 34.0 °F 37.4 °F 81% 29.86 in 6.2 mi South 20.7 mph - N/A   Mostly Cloudy
12:50 PM 42.8 °F 33.8 °F 37.4 °F 81% 29.86 in 6.2 mi South 21.9 mph - N/A   Mostly Cloudy
1:20 PM 42.8 °F 34.5 °F 39.2 °F 87% 29.86 in 6.2 mi South 18.4 mph - N/A   Mostly Cloudy
1:50 PM 42.8 °F 34.8 °F 37.4 °F 81% 29.86 in 6.2 mi SSW 17.3 mph - N/A   Mostly Cloudy
2:20 PM 42.8 °F 35.1 °F 37.4 °F 81% 29.86 in 6.2 mi SW 16.1 mph 27.6 mph N/A   Mostly Cloudy
2:50 PM 44.6 °F 37.4 °F 37.4 °F 76% 29.86 in 6.2 mi SW 16.1 mph - N/A   Mostly Cloudy
3:20 PM 44.6 °F 37.4 °F 37.4 °F 76% 29.86 in 6.2 mi SW 16.1 mph 27.6 mph N/A   Overcast
3:50 PM 44.6 °F 36.9 °F 35.6 °F 71% 29.89 in 6.2 mi SW 18.4 mph - N/A   Overcast
4:20 PM 42.8 °F 34.3 °F 35.6 °F 76% 29.89 in 6.2 mi SSW 19.6 mph - N/A   Overcast
4:50 PM 44.6 °F 38.1 °F 35.6 °F 71% 29.89 in 6.2 mi SSW 13.8 mph - N/A   Overcast
5:20 PM 42.8 °F 35.4 °F 35.6 °F 76% 29.89 in 6.2 mi SSW 15.0 mph - N/A   Mostly Cloudy
5:50 PM 42.8 °F 35.8 °F 35.6 °F 76% 29.89 in 6.2 mi SSW 13.8 mph - N/A   Mostly Cloudy
6:20 PM 42.8 °F 36.6 °F 37.4 °F 81% 29.89 in 6.2 mi SSW 11.5 mph - N/A   Overcast
6:50 PM 42.8 °F 35.4 °F 37.4 °F 81% 29.89 in 6.2 mi SW 15.0 mph - N/A   Mostly Cloudy
7:20 PM 41.0 °F 33.5 °F 37.4 °F 87% 29.92 in 6.2 mi SW 13.8 mph - N/A   Partly Cloudy
7:50 PM 41.0 °F 34.7 °F 37.4 °F 87% 29.92 in 6.2 mi SSW 10.4 mph - N/A   Partly Cloudy
8:20 PM 41.0 °F 34.3 °F 37.4 °F 87% 29.92 in 6.2 mi SSW 11.5 mph - N/A   Mostly Cloudy
8:50 PM 41.0 °F 34.3 °F 37.4 °F 87% 29.92 in 6.2 mi SSW 11.5 mph - N/A   Mostly Cloudy
9:20 PM 41.0 °F 34.7 °F 37.4 °F 87% 29.92 in 6.2 mi SSW 10.4 mph - N/A   Overcast
9:50 PM 41.0 °F 35.8 °F 37.4 °F 87% 29.92 in 6.2 mi South 8.1 mph - N/A   Overcast
10:20 PM 41.0 °F 34.7 °F 37.4 °F 87% 29.95 in 6.2 mi South 10.4 mph - N/A   Overcast
10:50 PM 41.0 °F 34.3 °F 37.4 °F 87% 29.95 in 6.2 mi SSW 11.5 mph - N/A   Overcast
11:20 PM 41.0 °F 35.2 °F 37.4 °F 87% 29.92 in 6.2 mi SW 9.2 mph - N/A   Mostly Cloudy
11:50 PM 39.2 °F 32.5 °F 35.6 °F 87% 29.92 in 6.2 mi SSW 10.4 mph - N/A   Mostly Cloudy